Location: Mount Cross
(36.6390°N, 79.4878°W)
Time: 12:27:52
(UTC+00:00)

Tiros 1 - Pass Details

Date: 03 April 2023
Orbit: 627 x 661 km, 48.4° (Epoch: 05 June)

Event Time Altitude Azimuth Distance (km) Brightness Sun altitude
Rises 12:11:50 0° 308° (NW) 2,991 10.1 13.3°
Reaches altitude 10° 12:14:19 10° 316° (NW) 2,077 9.4 13.8°
Maximum altitude 12:18:50 40° 26° (NNE) 972 8.5 14.7°
Drops below altitude 10° 12:23:20 10° 96° (E) 2,065 12.8 15.6°
Sets 12:25:47 0° 104° (ESE) 2,971 12.3 16.1°
